Tracking 30009 objects as of 7-Dec-2024
HD Live streaming from Space Station
objects crossing your sky now

FLOCK 4Y 29

Track FLOCK 4Y 29 now!
10-day predictions
FLOCK 4Y 29 is classified as:


NORAD ID: 55030
Int'l Code: 2023-001X
Perigee: 433.3 km
Apogee: 442.3 km
Inclination: 97.4 °
Period: 93.2 minutes
Semi major axis: 6808 km
RCS: Unknown
Launch date: January 3, 2023
Source: United States (US)
Launch site: AIR FORCE EASTERN TEST RANGE (AFETR)
Your satellite tracking list
Your tracking list is empty




NASA's NSSDC Master Catalog

Two Line Element Set (TLE):
1 55030U 23001X   24342.12142670  .00051998  00000-0  10893-2 0  9992
2 55030  97.3990  45.7001 0006560 267.8329  92.2168 15.45239783107365
Source of the keplerian elements: AFSPC